TimeCDT,TemperatureF,Dew PointF,Humidity,Sea Level PressureIn,VisibilityMPH,Wind Direction,Wind SpeedMPH,Gust SpeedMPH,PrecipitationIn,Events,Conditions,WindDirDegrees,DateUTC
12:14 AM,15.8,14.0,93,30.29,10.0,Calm,Calm,-,N/A,,Clear,0,2013-03-27 05:14:00
12:34 AM,15.8,14.0,93,30.30,10.0,Calm,Calm,-,N/A,,Clear,0,2013-03-27 05:34:00
12:53 AM,15.8,12.2,86,30.30,10.0,Calm,Calm,-,N/A,,Clear,0,2013-03-27 05:53:00
1:14 AM,15.8,14.0,93,30.30,1.8,Calm,Calm,-,N/A,,Mist,0,2013-03-27 06:14:00
1:34 AM,15.8,12.2,86,30.30,4.0,Calm,Calm,-,N/A,,Clear,0,2013-03-27 06:34:00
1:53 AM,12.2,10.4,92,30.30,5.0,Calm,Calm,-,N/A,,Scattered Clouds,0,2013-03-27 06:53:00
2:14 AM,12.2,10.4,92,30.30,5.0,NNE,4.6,-,N/A,,Clear,30,2013-03-27 07:14:00
2:33 AM,12.2,10.4,92,30.30,10.0,ENE,4.6,-,N/A,,Clear,60,2013-03-27 07:33:00
2:53 AM,12.2,10.4,92,30.30,10.0,NE,3.5,-,N/A,,Clear,40,2013-03-27 07:53:00
3:14 AM,12.2,10.4,92,30.29,7.0,Calm,Calm,-,N/A,,Clear,0,2013-03-27 08:14:00
3:33 AM,12.2,10.4,92,30.29,1.5,Calm,Calm,-,N/A,,Mist,0,2013-03-27 08:33:00
3:54 AM,12.2,10.4,92,30.29,0.5,Calm,Calm,-,N/A,Fog,Light Freezing Fog,0,2013-03-27 08:54:00
4:14 AM,12.2,8.6,85,30.29,0.8,Calm,Calm,-,N/A,,Mostly Cloudy,0,2013-03-27 09:14:00
4:33 AM,12.2,8.6,85,30.28,2.0,Calm,Calm,-,N/A,,Mostly Cloudy,0,2013-03-27 09:33:00
4:54 AM,10.4,8.6,92,30.27,0.2,Calm,Calm,-,N/A,Fog,Light Freezing Fog,0,2013-03-27 09:54:00
5:14 AM,10.4,8.6,92,30.27,0.2,Calm,Calm,-,N/A,Fog,Light Freezing Fog,0,2013-03-27 10:14:00
5:33 AM,8.6,6.8,92,30.27,0.2,Calm,Calm,-,N/A,Fog,Light Freezing Fog,0,2013-03-27 10:33:00
5:54 AM,8.6,5.0,85,30.27,0.2,Calm,Calm,-,N/A,Fog,Light Freezing Fog,0,2013-03-27 10:54:00
6:14 AM,8.6,5.0,85,30.27,0.5,Calm,Calm,-,N/A,Fog,Light Freezing Fog,0,2013-03-27 11:14:00
6:33 AM,8.6,5.0,85,30.28,0.2,Calm,Calm,-,N/A,Fog,Light Freezing Fog,0,2013-03-27 11:33:00
6:54 AM,8.6,6.8,92,30.28,0.2,Calm,Calm,-,N/A,Fog,Light Freezing Fog,0,2013-03-27 11:54:00
7:14 AM,8.6,6.8,92,30.28,0.2,Calm,Calm,-,N/A,Fog,Light Freezing Fog,0,2013-03-27 12:14:00
7:33 AM,8.6,6.8,92,30.29,0.2,Calm,Calm,-,N/A,Fog,Light Freezing Fog,0,2013-03-27 12:33:00
7:54 AM,10.4,6.8,85,30.30,0.2,Calm,Calm,-,N/A,Fog,Light Freezing Fog,0,2013-03-27 12:54:00
8:14 AM,12.2,8.6,85,30.30,0.2,Calm,Calm,-,N/A,Fog,Light Freezing Fog,0,2013-03-27 13:14:00
8:33 AM,12.2,10.4,92,30.30,0.2,Calm,Calm,-,N/A,Fog,Light Freezing Fog,0,2013-03-27 13:33:00
8:54 AM,14.0,12.2,93,30.30,0.2,Calm,Calm,-,N/A,Fog,Light Freezing Fog,0,2013-03-27 13:54:00
9:14 AM,15.8,12.2,86,30.29,0.2,Calm,Calm,-,N/A,Fog,Light Freezing Fog,0,2013-03-27 14:14:00
9:33 AM,17.6,15.8,93,30.30,0.2,SE,3.5,-,N/A,Fog,Light Freezing Fog,140,2013-03-27 14:33:00
9:54 AM,17.6,15.8,93,30.30,0.2,Calm,Calm,-,N/A,Fog,Light Freezing Fog,0,2013-03-27 14:54:00
10:14 AM,17.6,15.8,93,30.29,0.2,SE,3.5,-,N/A,Fog,Light Freezing Fog,140,2013-03-27 15:14:00
10:33 AM,19.4,17.6,93,30.30,0.2,SE,4.6,-,N/A,Fog,Light Freezing Fog,140,2013-03-27 15:33:00
10:54 AM,21.2,19.4,93,30.30,2.0,SE,5.8,-,N/A,,Mostly Cloudy,140,2013-03-27 15:54:00
11:14 AM,23.0,21.2,93,30.30,7.0,SE,5.8,-,N/A,,Clear,130,2013-03-27 16:14:00
11:33 AM,24.8,21.2,86,30.30,10.0,SE,4.6,-,N/A,,Clear,140,2013-03-27 16:33:00
11:54 AM,26.6,24.8,93,30.30,10.0,SSE,6.9,-,N/A,,Clear,150,2013-03-27 16:54:00
12:13 PM,26.6,24.8,93,30.30,10.0,SE,5.8,-,N/A,,Clear,140,2013-03-27 17:13:00
12:34 PM,28.4,26.6,93,30.29,10.0,SE,8.1,-,N/A,,Clear,130,2013-03-27 17:34:00
12:54 PM,28.4,26.6,93,30.29,10.0,ESE,9.2,-,N/A,,Clear,120,2013-03-27 17:54:00
1:13 PM,30.2,28.4,93,30.29,10.0,SE,9.2,-,N/A,,Clear,130,2013-03-27 18:13:00
1:34 PM,32.0,28.4,87,30.28,10.0,ESE,9.2,-,N/A,,Clear,120,2013-03-27 18:34:00
1:54 PM,33.8,28.4,81,30.28,10.0,SE,9.2,-,N/A,,Clear,130,2013-03-27 18:54:00
2:13 PM,33.8,28.4,81,30.28,10.0,ESE,10.4,-,N/A,,Clear,120,2013-03-27 19:13:00
2:34 PM,33.8,28.4,81,30.28,10.0,ESE,10.4,-,N/A,,Clear,120,2013-03-27 19:34:00
2:54 PM,33.8,28.4,81,30.27,10.0,ESE,11.5,-,N/A,,Scattered Clouds,120,2013-03-27 19:54:00
3:13 PM,33.8,28.4,81,30.27,10.0,ESE,9.2,-,N/A,,Scattered Clouds,110,2013-03-27 20:13:00
3:34 PM,35.6,28.4,75,30.26,10.0,ESE,11.5,-,N/A,,Clear,110,2013-03-27 20:34:00
3:53 PM,35.6,26.6,70,30.26,10.0,ESE,13.8,-,N/A,,Clear,110,2013-03-27 20:53:00
4:14 PM,35.6,28.4,75,30.26,10.0,ESE,11.5,-,N/A,,Clear,110,2013-03-27 21:14:00
4:34 PM,35.6,26.6,70,30.26,10.0,ESE,12.7,-,N/A,,Clear,110,2013-03-27 21:34:00
4:53 PM,35.6,28.4,75,30.26,10.0,East,10.4,-,N/A,,Clear,100,2013-03-27 21:53:00
5:14 PM,35.6,28.4,75,30.25,10.0,East,10.4,-,N/A,,Clear,100,2013-03-27 22:14:00
5:34 PM,35.6,28.4,75,30.25,10.0,East,11.5,-,N/A,,Clear,100,2013-03-27 22:34:00
5:53 PM,33.8,28.4,81,30.25,10.0,East,11.5,-,N/A,,Clear,100,2013-03-27 22:53:00
6:14 PM,33.8,28.4,81,30.24,10.0,East,11.5,-,N/A,,Clear,100,2013-03-27 23:14:00
6:33 PM,33.8,28.4,81,30.25,10.0,East,10.4,-,N/A,,Clear,90,2013-03-27 23:33:00
6:54 PM,33.8,28.4,81,30.25,10.0,East,9.2,-,N/A,,Clear,100,2013-03-27 23:54:00
7:13 PM,32.0,26.6,80,30.26,10.0,East,10.4,-,N/A,,Clear,100,2013-03-28 00:13:00
7:34 PM,32.0,26.6,80,30.26,10.0,ESE,10.4,-,N/A,,Clear,110,2013-03-28 00:34:00
7:54 PM,30.2,26.6,86,30.26,10.0,East,9.2,-,N/A,,Clear,100,2013-03-28 00:54:00
8:13 PM,30.2,26.6,86,30.26,10.0,ESE,8.1,-,N/A,,Clear,110,2013-03-28 01:13:00
8:34 PM,28.4,24.8,86,30.26,10.0,ESE,9.2,-,N/A,,Clear,110,2013-03-28 01:34:00
8:54 PM,28.4,24.8,86,30.27,10.0,ESE,10.4,-,N/A,,Clear,110,2013-03-28 01:54:00
9:13 PM,30.2,24.8,80,30.27,10.0,ESE,11.5,-,N/A,,Clear,110,2013-03-28 02:13:00
9:34 PM,28.4,24.8,86,30.27,10.0,ESE,11.5,-,N/A,,Clear,120,2013-03-28 02:34:00
9:54 PM,28.4,24.8,86,30.27,10.0,ESE,11.5,-,N/A,,Clear,110,2013-03-28 02:54:00
10:13 PM,28.4,24.8,86,30.28,10.0,ESE,10.4,-,N/A,,Clear,120,2013-03-28 03:13:00
10:34 PM,28.4,24.8,86,30.28,10.0,ESE,10.4,-,N/A,,Clear,120,2013-03-28 03:34:00
10:54 PM,28.4,24.8,86,30.28,10.0,ESE,9.2,-,N/A,,Clear,120,2013-03-28 03:54:00
11:13 PM,28.4,23.0,80,30.27,10.0,ESE,11.5,-,N/A,,Clear,110,2013-03-28 04:13:00
11:34 PM,28.4,24.8,86,30.27,10.0,ESE,10.4,-,N/A,,Clear,120,2013-03-28 04:34:00
11:54 PM,28.4,23.0,80,30.27,10.0,SE,9.2,-,N/A,,Clear,130,2013-03-28 04:54:00